Location: Newark
(49.3000°N, 9.4667°E)
Time: 03:05:28
(UTC+00:00)

Tiros 1 - Pass Details

Date: 02 June 2019
Orbit: 631 x 664 km, 48.4° (Epoch: 16 June)

Event Time Altitude Azimuth Distance (km) Brightness Sun altitude
Rises 06:02:42 0° 214° (SW) 2,906 10.1 23.4°
Reaches altitude 10° 06:05:18 10° 202° (SSW) 2,002 9.5 23.8°
Maximum altitude 06:09:07 26° 146° (SE) 1,240 9.2 24.5°
Drops below altitude 10° 06:12:58 10° 90° (E) 2,017 11.6 25.1°
Sets 06:15:35 0° 78° (ENE) 2,932 11.9 25.5°
